Tracking 28096 objects as of 28-Sep-2023
HD Live streaming from Space Station
objects crossing your sky now

SL-8 R/B

Track SL-8 R/B now!
10-day predictions
SL-8 R/B is classified as:


NORAD ID: 19257
Int'l Code: 1988-053B
Perigee: 757.8 km
Apogee: 787.2 km
Inclination: 74.0 °
Period: 100.1 minutes
Semi major axis: 7143 km
RCS: 4.3504 m2 (large)
Launch date: June 21, 1988
Source: Commonwealth of Independent States (former USSR) (CIS)
Launch site: PLESETSK MISSILE AND SPACE COMPLEX (PKMTR)

Note: This is a ROCKET BODY
Your satellite tracking list
Your tracking list is empty




NASA's NSSDC Master Catalog

Two Line Element Set (TLE):
1 19257U 88053B   23270.57183890  .00000450  00000-0  15735-3 0  9996
2 19257  74.0483 319.2724 0020527 358.3332 116.7581 14.37921950848317
Source of the keplerian elements: AFSPC